When you browse on this site, cookies collect data to enhance your experience and personalize the content and advertising you see.
Visit our Privacy Policy to learn more. By continuing to use the site, you agree to this use of cookies and data.
  • In Latvia
  • List of Countries
  • For 7 days
  • Water Temperature
  • Weather Map
  • Weather Widgets
  • user-avatar
    Login

    Hourly Weather Sharan

    Today, 4 June, Thursday

    Time Temperature Precipitation Wind Pressure Humidity
    00:00 +20°C° 0 mm 1 mps 587 mmHg 49%
    01:00 +19°C° 0 mm 1 mps 587 mmHg 52%
    02:00 +17°C° 0 mm 0 mps 587 mmHg 54%
    03:00 +16°C° 0 mm 0 mps 586 mmHg 56%
    04:00 +16°C° 0 mm 0 mps 586 mmHg 58%
    05:00 +15°C° 0 mm 0 mps 586 mmHg 58%
    06:00 +18°C° 0 mm 1 mps 586 mmHg 50%
    07:00 +19°C° 0 mm 1 mps 587 mmHg 43%
    08:00 +20°C° 0 mm 2 mps 588 mmHg 36%
    09:00 +21°C° 0 mm 2 mps 588 mmHg 31%
    10:00 +22°C° 0 mm 3 mps 588 mmHg 27%
    11:00 +23°C° 0 mm 4 mps 589 mmHg 22%
    12:00 +25°C° 0 mm 4 mps 589 mmHg 20%
    13:00 +26°C° 0 mm 3 mps 588 mmHg 19%
    14:00 +27°C° 0 mm 3 mps 588 mmHg 17%
    15:00 +27°C° 0 mm 3 mps 588 mmHg 16%
    16:00 +28°C° 0 mm 3 mps 588 mmHg 15%
    17:00 +28°C° 0 mm 2 mps 588 mmHg 14%
    18:00 +27°C° 0 mm 3 mps 588 mmHg 16%
    19:00 +27°C° 0 mm 3 mps 588 mmHg 18%
    20:00 +26°C° 0 mm 3 mps 588 mmHg 19%
    21:00 +25°C° 0 mm 3 mps 588 mmHg 22%
    22:00 +24°C° 0 mm 3 mps 588 mmHg 25%
    23:00 +23°C° 0 mm 2 mps 588 mmHg 28%

    Tomorrow, 5 June, Friday

    Time Temperature Precipitation Wind Pressure Humidity
    00:00 +21°C° 0 mm 2 mps 587 mmHg 28%
    01:00 +20°C° 0 mm 2 mps 587 mmHg 27%
    02:00 +19°C° 0 mm 3 mps 586 mmHg 27%
    03:00 +19°C° 0 mm 2 mps 586 mmHg 28%
    04:00 +18°C° 0 mm 2 mps 586 mmHg 28%
    05:00 +17°C° 0 mm 2 mps 585 mmHg 29%
    06:00 +19°C° 0 mm 2 mps 586 mmHg 26%
    07:00 +20°C° 0 mm 3 mps 587 mmHg 23%
    08:00 +21°C° 0 mm 3 mps 588 mmHg 21%
    09:00 +22°C° 0 mm 3 mps 588 mmHg 19%
    10:00 +25°C° 0 mm 4 mps 589 mmHg 17%
    11:00 +26°C° 0 mm 5 mps 589 mmHg 14%
    12:00 +27°C° 0 mm 5 mps 589 mmHg 14%
    13:00 +28°C° 0 mm 5 mps 589 mmHg 13%
    14:00 +29°C° 0 mm 5 mps 589 mmHg 12%
    15:00 +29°C° 0 mm 5 mps 588 mmHg 12%
    16:00 +29°C° 0 mm 5 mps 588 mmHg 12%
    17:00 +29°C° 0 mm 5 mps 588 mmHg 12%
    18:00 +28°C° 0 mm 6 mps 588 mmHg 13%
    19:00 +27°C° 0 mm 6 mps 588 mmHg 14%
    20:00 +26°C° 0 mm 7 mps 588 mmHg 15%
    21:00 +24°C° 0 mm 6 mps 588 mmHg 17%
    22:00 +23°C° 0 mm 5 mps 587 mmHg 18%
    23:00 +22°C° 0 mm 5 mps 587 mmHg 20%

    Day after tomorrow, 6 June, Saturday

    Time Temperature Precipitation Wind Pressure Humidity
    00:00 +21°C° 0 mm 4 mps 587 mmHg 21%
    01:00 +20°C° 0 mm 3 mps 587 mmHg 23%
    02:00 +19°C° 0 mm 3 mps 586 mmHg 25%
    03:00 +19°C° 0 mm 3 mps 586 mmHg 26%
    04:00 +18°C° 0 mm 2 mps 586 mmHg 27%
    05:00 +18°C° 0 mm 2 mps 586 mmHg 28%
    06:00 +19°C° 0 mm 3 mps 586 mmHg 26%
    07:00 +20°C° 0 mm 3 mps 587 mmHg 23%
    08:00 +22°C° 0 mm 4 mps 588 mmHg 21%
    09:00 +23°C° 0 mm 5 mps 588 mmHg 19%
    10:00 +26°C° 0 mm 6 mps 589 mmHg 16%
    11:00 +27°C° 0 mm 7 mps 590 mmHg 14%
    12:00 +28°C° 0 mm 7 mps 589 mmHg 13%
    13:00 +29°C° 0 mm 6 mps 589 mmHg 12%
    14:00 +29°C° 0 mm 5 mps 589 mmHg 11%
    15:00 +29°C° 0 mm 5 mps 589 mmHg 11%
    16:00 +29°C° 0 mm 5 mps 589 mmHg 10%
    17:00 +30°C° 0 mm 5 mps 588 mmHg 10%
    18:00 +28°C° 0 mm 5 mps 588 mmHg 12%
    19:00 +27°C° 0 mm 5 mps 588 mmHg 14%
    20:00 +26°C° 0 mm 6 mps 588 mmHg 16%
    21:00 +25°C° 0 mm 5 mps 588 mmHg 18%
    22:00 +23°C° 0 mm 5 mps 588 mmHg 21%
    23:00 +22°C° 0 mm 4 mps 588 mmHg 23%

    7 June, Sunday

    Time Temperature Precipitation Wind Pressure Humidity
    00:00 +21°C° 0 mm 4 mps 587 mmHg 23%
    01:00 +20°C° 0 mm 3 mps 587 mmHg 23%
    02:00 +19°C° 0 mm 3 mps 586 mmHg 23%
    03:00 +18°C° 0 mm 3 mps 586 mmHg 24%
    04:00 +18°C° 0 mm 2 mps 586 mmHg 25%
    05:00 +18°C° 0 mm 1 mps 585 mmHg 26%
    06:00 +18°C° 0 mm 2 mps 586 mmHg 24%
    07:00 +20°C° 0 mm 2 mps 587 mmHg 21%
    08:00 +21°C° 0 mm 2 mps 588 mmHg 19%
    09:00 +23°C° 0 mm 2 mps 588 mmHg 16%
    10:00 +25°C° 0 mm 2 mps 589 mmHg 14%
    11:00 +26°C° 0 mm 2 mps 589 mmHg 11%
    12:00 +27°C° 0 mm 2 mps 589 mmHg 10%
    13:00 +28°C° 0 mm 2 mps 589 mmHg 9%
    14:00 +29°C° 0 mm 2 mps 589 mmHg 8%
    15:00 +29°C° 0 mm 2 mps 588 mmHg 7%
    16:00 +29°C° 0 mm 2 mps 588 mmHg 7%
    17:00 +30°C° 0 mm 2 mps 588 mmHg 7%
    18:00 +29°C° 0 mm 2 mps 588 mmHg 8%
    19:00 +28°C° 0 mm 1 mps 587 mmHg 10%
    20:00 +27°C° 0 mm 1 mps 587 mmHg 11%
    21:00 +26°C° 0 mm 1 mps 587 mmHg 14%
    22:00 +25°C° 0 mm 2 mps 587 mmHg 16%
    23:00 +24°C° 0 mm 2 mps 587 mmHg 18%

    8 June, Monday

    Time Temperature Precipitation Wind Pressure Humidity
    00:00 +23°C° 0 mm 2 mps 587 mmHg 21%
    01:00 +21°C° 0 mm 2 mps 586 mmHg 24%
    02:00 +20°C° 0 mm 2 mps 586 mmHg 26%
    03:00 +21°C° 0 mm 1 mps 585 mmHg 28%
    04:00 +20°C° 0 mm 1 mps 585 mmHg 30%
    05:00 +19°C° 0 mm 1 mps 585 mmHg 32%
    06:00 +21°C° 0 mm 1 mps 586 mmHg 28%
    07:00 +22°C° 0 mm 1 mps 587 mmHg 24%
    08:00 +24°C° 0 mm 2 mps 588 mmHg 21%
    09:00 +25°C° 0 mm 2 mps 588 mmHg 18%
    10:00 +26°C° 0 mm 1 mps 588 mmHg 15%
    11:00 +28°C° 0 mm 1 mps 589 mmHg 13%
    12:00 +29°C° 0 mm 2 mps 589 mmHg 12%
    13:00 +30°C° 0 mm 2 mps 589 mmHg 11%
    14:00 +31°C° 0 mm 2 mps 589 mmHg 10%
    15:00 +31°C° 0 mm 3 mps 589 mmHg 9%
    16:00 +31°C° 0 mm 3 mps 588 mmHg 9%
    17:00 +33°C° 0 mm 4 mps 588 mmHg 9%
    18:00 +32°C° 0 mm 4 mps 588 mmHg 12%
    19:00 +30°C° 0 mm 3 mps 588 mmHg 14%
    20:00 +29°C° 0 mm 3 mps 588 mmHg 16%
    21:00 +28°C° 0 mm 3 mps 588 mmHg 24%
    22:00 +26°C° 0 mm 3 mps 588 mmHg 32%
    23:00 +25°C° 0 mm 3 mps 588 mmHg 39%

    9 June, Tuesday

    Time Temperature Precipitation Wind Pressure Humidity
    00:00 +24°C° 0 mm 2 mps 587 mmHg 40%
    01:00 +24°C° 0 mm 2 mps 587 mmHg 40%
    02:00 +23°C° 0 mm 1 mps 586 mmHg 40%
    03:00 +22°C° 0 mm 1 mps 586 mmHg 42%
    04:00 +22°C° 0 mm 1 mps 586 mmHg 45%
    05:00 +19°C° 0 mm 0 mps 585 mmHg 47%
    06:00 +20°C° 0 mm 0 mps 586 mmHg 43%
    07:00 +22°C° 0 mm 0 mps 587 mmHg 39%
    08:00 +23°C° 0 mm 0 mps 588 mmHg 35%
    09:00 +27°C° 0 mm 1 mps 588 mmHg 29%
    10:00 +28°C° 0 mm 3 mps 589 mmHg 23%
    11:00 +30°C° 0 mm 4 mps 589 mmHg 16%
    12:00 +32°C° 0 mm 5 mps 589 mmHg 15%
    13:00 +32°C° 0 mm 6 mps 589 mmHg 14%
    14:00 +33°C° 0 mm 7 mps 589 mmHg 13%
    15:00 +33°C° 0 mm 7 mps 589 mmHg 13%
    16:00 +33°C° 0 mm 8 mps 589 mmHg 12%
    17:00 +33°C° 0 mm 8 mps 588 mmHg 12%
    18:00 +32°C° 0 mm 7 mps 588 mmHg 12%
    19:00 +30°C° 0 mm 6 mps 588 mmHg 13%
    20:00 +29°C° 0 mm 5 mps 588 mmHg 14%
    21:00 +28°C° 0 mm 4 mps 587 mmHg 17%
    22:00 +27°C° 0 mm 4 mps 587 mmHg 20%
    23:00 +25°C° 0 mm 3 mps 587 mmHg 23%
    Show more